Temperature
16 19 19 19 19 19 18 18 19 19 17 17 18 18 18 15 16 16 16 15 14 12 13 14 15 15 15 15 15 15 14 14 13 13 12 11 11 11 10 10 10 10 9 9
18 18 19 17 16 16 17 17 18 18 16 16 17 17 17 16 16 15 15 15 14 13 12 13 14 14 14 14 14 14 14 13 13 12 12 11 11 11 11 10 10 10 9 9
18 18 16 16 16 16 17 17 18 18 17 15 16 18 16 16 15 14 14 13 13 13 13 12 13 13 14 13 13 13 13 12 12 12 12 11 11 11 10 10 10 10 9 9
18 17 15 16 17 17 17 17 16 16 17 19 17 19 17 17 16 15 14 14 13 12 12 12 12 13 13 13 12 12 12 12 12 11 11 11 10 10 10 9 9 9 9 9
17 16 15 16 17 16 17 15 15 16 17 17 17 18 19 17 17 16 15 14 13 12 12 12 12 12 12 12 12 12 11 11 11 11 10 10 10 9 9 9 9 8 8 8
17 16 16 17 15 15 15 15 14 15 16 17 17 18 19 17 18 17 16 14 12 12 11 11 12 12 12 11 11 11 11 11 10 10 10 9 9 9 8 8 8 8 8 7
16 16 16 15 15 15 16 17 18 18 18 19 16 16 19 18 18 18 16 14 13 12 11 11 11 11 11 11 11 11 10 10 10 9 9 8 8 8 7 7 7 7 7 7
17 17 16 15 17 17 16 17 18 18 19 19 15 17 19 16 14 14 15 14 12 11 11 11 11 11 11 11 10 10 10 9 9 8 8 8 7 7 7 6 6 6 6 6
17 17 14 14 15 17 16 17 17 18 16 17 18 18 17 14 14 13 13 13 12 11 10 10 10 10 10 10 10 10 9 9 8 8 7 7 7 6 6 6 6 6 6 5
18 17 15 14 14 13 16 16 16 17 17 17 18 18 19 16 15 14 13 13 12 11 10 10 10 10 10 10 9 9 8 8 7 7 7 6 6 6 6 5 5 5 5 5
17 17 15 14 15 16 14 15 16 17 16 17 18 19 17 17 16 15 14 13 12 11 10 9 9 9 9 9 9 8 8 7 7 6 6 6 5 5 5 5 5 4 4 4
16 17 17 16 14 14 16 16 16 17 16 16 17 18 15 15 15 14 13 12 11 10 9 9 9 9 9 8 8 7 7 6 6 6 5 5 5 5 5 4 4 4 4 3
15 16 16 16 14 13 14 14 15 16 16 16 16 18 14 13 13 12 12 11 10 9 9 8 8 8 8 7 7 7 6 6 5 5 5 5 4 4 4 4 4 3 3 3
15 16 17 18 17 16 15 14 13 15 16 16 16 17 15 14 14 12 11 10 9 8 8 8 8 7 7 7 6 6 5 5 5 5 4 4 4 4 3 3 3 3 2 2
14 16 16 16 14 14 15 15 13 14 16 16 17 17 17 16 15 13 11 9 9 8 7 8 7 7 6 6 5 5 5 4 4 4 4 3 3 3 3 3 2 2 2 1
14 15 14 14 12 12 13 14 14 14 15 15 16 16 16 13 12 11 10 9 8 7 7 7 7 6 6 5 5 5 4 4 4 3 3 3 3 2 2 2 2 1 0 -0
13 14 14 15 12 12 14 15 14 14 14 14 14 15 13 11 10 10 9 8 8 7 7 6 6 5 5 5 4 4 4 3 3 3 3 2 2 1 1 1 0 -0 -1 -1
13 14 14 13 12 12 16 13 13 13 13 13 13 12 11 10 9 8 8 7 7 6 6 6 5 5 4 4 4 3 3 3 2 2 2 1 1 1 0 -0 -1 -1 -2 -2
12 13 13 12 13 14 15 12 11 12 13 12 11 10 9 7 7 7 6 6 6 6 5 5 5 4 4 3 3 3 2 2 2 1 1 0 -0 -1 -1 -1 -2 -2 -3 -3
9 11 13 11 11 12 15 11 10 11 12 11 10 9 8 7 10 9 6 6 5 5 5 4 4 4 3 3 2 2 2 1 1 1 0 -0 -1 -1 -2 -2 -2 -3 -3 -4
9 10 11 11 11 13 13 9 10 12 13 9 8 8 7 8 9 7 6 5 5 5 4 4 3 3 3 2 2 1 1 1 0 -0 -0 -1 -1 -2 -2 -3 -3 -4 -4 -5
11 10 11 11 11 12 10 9 11 12 8 8 8 7 7 7 6 6 5 5 4 4 4 3 3 3 2 2 1 1 0 0 -0 -1 -1 -1 -2 -2 -3 -3 -4 -4 -5 -6
11 12 12 12 12 10 8 9 9 8 8 7 7 7 7 6 5 5 4 4 4 4 3 3 2 2 2 1 1 0 -0 -1 -1 -1 -2 -2 -2 -3 -4 -4 -5 -5 -6 -6
9 8 9 9 9 8 7 7 8 8 7 7 7 7 6 5 5 4 4 4 3 3 3 2 2 1 1 1 0 -0 -1 -1 -2 -2 -2 -3 -3 -4 -4 -5 -6 -6 -6 -7
10 8 8 9 8 7 6 6 7 7 7 7 6 6 5 5 4 4 3 3 3 3 2 2 1 1 0 -0 -0 -1 -1 -2 -2 -3 -3 -3 -4 -5 -5 -6 -6 -7 -7 -7
8 8 9 10 9 8 7 6 6 6 6 6 5 4 4 4 3 3 3 3 2 2 2 1 1 0 -0 -1 -1 -1 -2 -2 -3 -3 -4 -4 -5 -5 -6 -6 -7 -7 -7 -7
Wind_Speed
3 5 8 8 8 6 4 6 8 6 2 4 6 7 4 2 7 10 10 10 11 12 11 12 13 13 13 12 10 8 6 4 3 3 2 3 4 5 6 8 11 13 13 14
5 10 9 4 4 6 7 8 9 5 2 3 6 6 2 6 8 9 10 10 11 12 12 12 13 13 14 13 11 10 7 5 3 2 1 2 3 4 5 6 9 11 12 13
12 3 4 6 6 7 9 10 8 5 2 3 4 3 6 7 7 7 7 8 9 10 12 12 12 13 13 12 11 9 8 6 4 2 1 1 2 3 4 4 5 7 10 11
8 4 5 7 8 9 8 6 7 5 5 3 3 4 9 12 11 10 9 9 9 9 10 10 10 11 11 10 9 9 8 7 5 2 1 1 3 4 5 5 5 7 8 9
7 6 7 8 7 9 3 3 4 4 5 6 5 6 7 14 16 15 13 11 10 9 9 9 9 9 9 8 8 7 8 7 5 3 2 2 3 5 5 6 7 7 6 7
7 3 5 3 2 4 6 5 3 2 4 5 5 7 6 12 19 19 16 13 11 9 8 8 7 7 7 6 6 6 7 6 5 4 3 3 5 6 7 7 7 7 6 6
8 7 5 4 5 5 6 5 4 4 5 3 3 5 5 7 10 17 18 15 12 10 9 8 8 7 6 6 5 5 6 6 5 5 5 5 5 6 7 8 8 8 8 7
7 6 9 8 8 8 8 6 5 4 3 1 4 6 1 4 3 7 13 14 13 11 9 8 7 6 5 4 4 4 5 5 5 5 5 5 5 5 6 7 8 9 8 9
8 4 3 3 1 5 6 6 2 2 1 5 5 4 4 4 5 8 12 14 13 11 9 8 6 5 4 3 3 4 4 4 5 6 6 6 7 7 8 9 9 8 9 9
7 4 4 4 4 3 1 5 4 4 4 5 5 5 4 8 9 11 14 15 13 11 9 8 6 4 3 2 2 3 3 4 5 6 6 6 8 8 9 9 10 11 12 12
7 6 5 5 8 8 6 5 5 4 3 4 5 3 1 6 9 12 14 14 13 11 10 8 6 4 2 2 2 3 3 4 5 7 7 8 9 9 10 10 11 12 12 13
8 5 5 4 2 1 6 7 8 6 5 4 5 5 4 4 7 10 12 12 10 10 8 7 5 3 2 1 2 3 4 5 6 7 8 9 10 10 11 12 13 13 14 14
9 7 6 4 4 4 5 5 7 4 4 7 7 6 4 4 7 9 10 11 10 9 8 6 4 2 1 2 3 4 5 6 7 8 9 10 11 12 13 13 14 14 15 16
6 6 8 7 2 7 7 8 10 10 8 10 13 14 6 7 9 9 10 11 10 8 7 5 3 1 1 2 4 5 6 7 8 9 10 11 12 13 14 14 15 16 16 17
6 7 7 5 1 4 8 10 13 15 16 14 16 18 15 11 11 10 10 11 9 8 6 3 1 1 2 3 4 6 7 8 9 10 11 12 13 13 14 15 16 16 17 17
5 5 4 4 2 5 7 13 16 18 19 21 22 21 11 4 6 8 10 11 10 7 5 2 1 2 3 4 6 7 8 9 10 11 12 13 13 14 15 16 17 17 18 18
7 7 6 6 2 3 11 14 17 13 13 13 17 13 4 6 8 8 9 10 8 6 3 2 2 3 4 5 7 9 10 10 11 12 13 13 14 15 16 17 18 18 19 19
8 7 5 3 3 10 6 2 6 11 13 13 11 5 7 7 6 4 6 8 7 5 3 2 3 4 5 6 7 9 10 11 12 13 14 14 15 16 17 18 18 19 18 18
5 8 5 5 7 11 7 4 6 8 9 9 11 9 8 8 6 4 5 5 4 3 2 2 3 5 6 7 8 10 11 12 13 14 15 15 16 17 18 19 20 19 19 19
2 5 7 6 6 9 4 4 4 3 7 6 10 11 11 10 7 6 7 5 4 2 2 3 4 6 7 8 9 11 13 14 15 15 16 16 17 17 18 19 20 19 18 19
6 7 11 12 11 10 1 6 7 6 3 7 10 12 12 8 2 6 7 4 3 2 3 4 5 7 8 9 10 12 14 15 15 16 16 17 17 18 18 19 18 18 18 18
11 10 10 9 10 10 7 9 8 3 4 8 10 10 9 6 5 5 4 3 2 3 4 5 7 9 9 10 11 13 15 16 16 16 17 18 18 17 16 18 18 18 18 18
10 9 7 10 7 1 6 5 1 4 6 7 8 7 8 7 5 5 3 3 3 4 5 6 8 10 11 11 12 15 16 16 16 17 18 18 18 17 16 17 18 17 16 15
7 3 5 6 6 4 5 4 4 5 6 6 7 8 7 6 6 4 3 3 4 5 7 8 9 12 13 14 14 15 16 16 16 18 18 17 17 17 17 14 14 14 15 15
7 9 7 7 4 3 6 7 7 6 7 8 7 6 7 6 5 4 4 5 6 7 8 9 10 13 15 15 15 16 16 16 17 18 17 17 16 17 16 15 14 16 15 16
7 8 9 8 7 7 6 8 10 10 9 9 8 7 5 5 4 4 5 6 7 8 9 10 12 14 15 16 17 16 16 16 16 16 16 14 14 14 15 15 16 17 19 24
Wind_Direction
165 228 246 251 241 263 255 256 266 274 297 277 266 275 286 167 158 144 127 111 96 84 77 71 71 73 76 75 77 81 91 109 140 162 197 227 247 252 252 252 255 255 253 251
215 247 262 248 202 216 233 252 264 267 206 266 281 279 186 156 153 143 133 121 111 104 91 80 77 74 73 72 72 74 77 88 111 143 194 245 270 273 273 267 265 262 259 256
237 253 135 165 182 208 229 241 258 266 254 215 278 213 165 157 151 143 139 130 121 112 104 94 85 79 74 68 66 68 69 75 82 104 175 255 270 273 273 278 278 274 268 263
242 226 189 218 229 226 248 238 238 240 264 250 259 242 179 175 174 171 161 150 135 125 114 104 96 86 78 73 70 70 69 67 67 74 28 313 307 309 312 310 298 293 281 271
224 194 196 219 229 207 218 115 179 226 250 266 224 242 187 180 190 186 176 164 151 139 127 116 106 97 88 80 74 72 71 64 58 51 29 332 318 315 314 312 306 305 296 283
244 198 217 217 114 169 141 131 123 177 224 246 209 223 206 193 202 189 181 175 166 155 143 130 121 113 99 87 77 71 68 60 48 38 22 355 336 326 321 319 316 313 306 297
229 222 205 173 152 155 187 218 236 223 218 230 150 234 248 180 197 194 185 180 173 165 159 150 142 128 109 90 75 65 57 48 35 23 10 356 339 327 320 319 316 312 308 304
215 213 192 194 209 195 198 225 248 269 264 263 194 239 221 138 181 203 191 179 172 171 166 156 146 134 115 92 72 56 42 30 17 5 355 346 336 324 319 314 309 305 303 302
215 202 115 165 185 190 176 205 266 271 281 271 245 254 248 164 185 187 185 180 178 175 170 162 151 138 117 88 61 39 23 10 0 350 340 335 331 322 315 310 305 301 298 299
211 189 151 139 136 52 266 154 166 212 248 259 257 249 229 188 187 179 181 182 179 174 170 165 156 142 114 79 50 28 11 356 347 338 334 323 320 318 312 307 304 302 301 299
202 198 160 180 206 196 163 179 200 204 253 262 272 257 165 191 182 178 180 182 179 177 172 166 157 141 116 82 43 19 0 346 338 333 326 320 318 315 311 306 304 303 301 299
190 205 195 183 107 300 218 208 195 221 226 230 267 273 106 192 187 183 179 177 174 170 167 162 156 145 121 53 11 355 345 338 333 327 321 318 316 313 310 308 306 304 301 299
161 188 184 178 184 185 209 205 210 223 239 228 243 257 118 167 178 183 181 174 168 164 161 159 155 146 89 359 342 337 333 329 326 323 319 317 315 314 311 310 308 305 302 299
172 198 224 238 194 171 193 199 198 204 229 241 240 257 231 205 194 188 185 179 171 164 160 159 156 138 355 328 326 323 322 322 321 318 315 313 314 313 310 308 306 304 302 300
194 222 229 251 190 189 215 213 203 216 236 251 261 264 263 243 222 206 187 175 170 167 164 160 170 296 309 314 314 315 316 317 317 313 310 309 310 309 307 306 304 303 301 299
196 212 197 225 204 227 247 242 231 233 244 251 263 269 278 247 214 197 182 174 175 173 171 176 224 281 296 305 309 310 310 313 311 307 306 307 307 307 306 306 305 303 302 300
180 178 199 242 184 258 256 244 232 228 228 238 252 266 189 184 188 186 180 177 179 178 181 210 259 280 292 301 304 305 307 308 306 304 304 305 306 305 306 306 305 304 303 302
174 181 211 217 191 242 259 127 222 230 241 234 243 224 180 171 149 155 171 175 174 176 196 236 269 282 290 296 298 300 301 302 302 303 304 306 307 305 305 305 304 304 305 303
199 180 185 197 239 264 263 211 193 214 252 225 219 196 161 138 139 153 156 161 168 180 216 255 272 282 288 293 298 300 301 302 302 303 306 308 307 305 305 305 305 306 305 303
153 203 204 197 226 248 250 138 153 185 259 196 187 174 162 163 194 184 160 161 168 191 225 258 276 284 288 296 303 301 301 303 304 306 307 306 306 304 303 303 305 304 303 302
167 192 214 223 237 258 205 141 157 213 281 153 171 169 169 183 175 127 148 163 183 220 254 272 282 288 294 302 303 299 300 302 306 306 304 303 303 303 302 302 302 303 303 302
181 185 201 207 225 244 151 159 197 234 116 155 164 166 169 158 131 141 158 176 210 252 274 287 292 295 300 303 302 299 301 306 308 306 303 302 303 304 302 303 304 304 304 304
208 203 197 202 219 72 164 194 184 141 158 162 163 162 159 158 165 166 181 211 248 273 286 292 295 298 300 302 301 300 304 308 308 305 303 304 304 304 303 303 304 305 304 303
210 195 197 222 236 213 202 197 181 170 162 151 150 151 158 162 166 181 211 243 266 279 289 294 297 298 301 305 305 303 305 307 305 304 304 305 305 305 304 303 301 301 302 302
186 175 200 228 225 197 207 197 174 153 140 135 135 144 154 158 174 203 237 260 274 284 290 293 294 297 301 306 305 305 307 308 305 304 304 305 305 303 304 303 300 299 295 293
183 185 195 227 200 192 190 176 166 156 154 152 146 147 155 173 194 227 255 271 280 287 293 294 295 299 302 305 304 305 307 306 304 303 304 305 304 303 303 303 302 295 292 296
Height
1543 1542 1538 1537 1538 1539 1539 1539 1537 1535 1537 1539 1534 1533 1533 1535 1536 1536 1537 1538 1537 1536 1535 1534 1533 1533 1532 1532 1532 1532 1532 1532 1532 1533 1533 1533 1533 1533 1533 1532 1532 1531 1531 1530
1540 1537 1535 1538 1540 1542 1541 1540 1535 1534 1538 1537 1534 1532 1532 1534 1535 1536 1538 1538 1538 1538 1537 1536 1536 1535 1535 1534 1534 1534 1534 1534 1533 1533 1533 1533 1532 1531 1531 1530 1529 1527 1526 1525
1534 1534 1537 1538 1539 1540 1538 1536 1533 1534 1535 1537 1536 1529 1532 1534 1536 1538 1538 1539 1539 1539 1539 1538 1538 1537 1537 1536 1536 1536 1536 1535 1535 1534 1533 1532 1531 1530 1529 1527 1526 1524 1523 1521
1532 1533 1537 1536 1535 1535 1534 1532 1535 1537 1534 1527 1533 1524 1527 1529 1533 1536 1538 1538 1539 1539 1539 1539 1538 1538 1538 1538 1538 1538 1537 1536 1535 1534 1533 1532 1530 1529 1527 1525 1523 1521 1519 1518
1528 1532 1534 1533 1530 1532 1531 1535 1536 1536 1533 1530 1530 1526 1518 1526 1528 1531 1534 1537 1538 1539 1539 1539 1539 1539 1539 1539 1538 1538 1538 1537 1535 1534 1532 1530 1529 1527 1525 1522 1520 1518 1516 1514
1527 1530 1529 1528 1531 1533 1535 1536 1538 1536 1532 1529 1523 1524 1514 1519 1519 1524 1530 1534 1536 1537 1538 1538 1538 1539 1539 1539 1538 1538 1537 1536 1534 1532 1531 1529 1526 1524 1522 1519 1517 1515 1512 1510
1526 1526 1527 1528 1529 1533 1533 1530 1529 1527 1526 1520 1527 1526 1511 1511 1515 1518 1525 1530 1534 1535 1537 1537 1538 1538 1538 1538 1538 1537 1536 1534 1533 1531 1528 1526 1524 1521 1519 1516 1513 1511 1508 1505
1521 1519 1522 1524 1522 1524 1526 1525 1525 1525 1520 1517 1527 1520 1508 1515 1518 1520 1524 1528 1531 1533 1535 1536 1536 1537 1537 1537 1536 1535 1534 1532 1530 1528 1526 1523 1521 1518 1516 1513 1510 1507 1504 1500
1514 1517 1522 1523 1523 1522 1525 1523 1523 1522 1527 1524 1512 1511 1509 1515 1517 1519 1522 1525 1528 1531 1532 1534 1534 1535 1535 1535 1534 1533 1531 1529 1527 1525 1523 1520 1518 1515 1512 1509 1506 1502 1499 1495
1509 1515 1520 1523 1524 1526 1523 1521 1525 1523 1525 1521 1512 1510 1503 1508 1511 1516 1519 1522 1525 1528 1530 1531 1532 1533 1533 1532 1531 1530 1528 1526 1524 1522 1519 1517 1514 1511 1508 1504 1501 1497 1493 1489
1509 1511 1520 1522 1520 1518 1525 1525 1520 1519 1521 1519 1514 1505 1501 1503 1507 1511 1515 1519 1522 1525 1527 1529 1530 1530 1530 1529 1528 1527 1525 1523 1521 1518 1516 1513 1510 1506 1503 1499 1495 1491 1487 1483
1507 1507 1510 1515 1519 1520 1516 1515 1516 1518 1518 1520 1515 1507 1504 1505 1507 1510 1514 1517 1520 1523 1524 1526 1527 1527 1527 1526 1525 1524 1522 1519 1517 1514 1512 1508 1505 1501 1498 1494 1489 1485 1480 1475
1506 1506 1510 1514 1520 1521 1518 1517 1517 1515 1515 1515 1515 1504 1506 1506 1508 1510 1513 1515 1518 1520 1522 1523 1524 1525 1524 1523 1522 1520 1518 1516 1513 1510 1507 1504 1500 1496 1492 1487 1483 1478 1473 1467
1502 1501 1500 1501 1500 1505 1511 1514 1516 1514 1512 1508 1506 1497 1501 1504 1506 1508 1511 1513 1516 1518 1519 1521 1522 1522 1521 1520 1519 1517 1515 1512 1509 1506 1502 1499 1495 1490 1486 1481 1476 1470 1465 1459
1501 1499 1498 1500 1504 1505 1504 1505 1511 1509 1501 1501 1493 1492 1492 1497 1501 1505 1508 1511 1513 1516 1517 1518 1518 1518 1518 1516 1515 1513 1510 1508 1505 1501 1497 1493 1489 1484 1479 1473 1468 1462 1456 1450
1499 1499 1501 1504 1507 1507 1507 1502 1502 1502 1499 1495 1492 1490 1491 1496 1500 1502 1505 1508 1511 1513 1514 1515 1515 1515 1514 1513 1511 1509 1506 1503 1500 1496 1492 1487 1482 1477 1471 1465 1459 1453 1447 1441
1497 1498 1501 1498 1508 1506 1499 1490 1491 1493 1491 1491 1490 1487 1492 1496 1498 1500 1503 1506 1508 1510 1511 1512 1512 1512 1511 1509 1507 1504 1501 1498 1494 1490 1485 1480 1475 1469 1464 1457 1451 1445 1439 1432
1495 1495 1496 1499 1506 1506 1481 1486 1486 1486 1485 1487 1488 1490 1493 1495 1498 1500 1502 1504 1506 1508 1509 1509 1509 1508 1507 1505 1502 1500 1496 1493 1488 1484 1479 1474 1468 1462 1456 1449 1443 1437 1431 1424
1494 1493 1495 1500 1497 1486 1481 1484 1486 1486 1482 1483 1485 1489 1493 1496 1498 1500 1501 1502 1504 1505 1506 1506 1505 1504 1503 1500 1498 1494 1491 1487 1482 1478 1472 1467 1461 1454 1448 1441 1435 1429 1422 1415
1497 1494 1493 1499 1498 1490 1476 1483 1484 1486 1481 1481 1483 1487 1491 1494 1495 1496 1499 1500 1502 1502 1503 1502 1502 1500 1498 1496 1492 1489 1485 1481 1476 1471 1465 1460 1454 1447 1440 1434 1427 1421 1414 1406
1494 1494 1491 1490 1489 1476 1476 1482 1484 1485 1475 1480 1482 1485 1489 1491 1492 1495 1496 1498 1499 1500 1500 1499 1498 1496 1493 1490 1487 1483 1479 1474 1469 1463 1458 1452 1446 1440 1433 1426 1419 1413 1405 1398
1479 1483 1484 1483 1485 1479 1477 1480 1479 1475 1478 1479 1482 1484 1487 1490 1491 1493 1494 1496 1496 1497 1496 1495 1493 1491 1488 1485 1481 1476 1472 1467 1462 1456 1450 1444 1438 1432 1425 1418 1411 1405 1398 1390
1471 1469 1469 1471 1470 1471 1473 1474 1474 1475 1477 1479 1481 1483 1486 1488 1489 1491 1492 1493 1493 1493 1492 1490 1488 1485 1483 1479 1475 1470 1465 1460 1454 1448 1442 1436 1430 1424 1418 1411 1404 1397 1391 1384
1468 1470 1470 1470 1468 1470 1471 1472 1473 1474 1476 1477 1480 1482 1484 1486 1487 1489 1490 1490 1490 1489 1487 1485 1483 1479 1476 1473 1468 1463 1458 1452 1446 1440 1434 1428 1422 1415 1410 1403 1397 1390 1384 1378
1459 1466 1466 1465 1467 1468 1468 1469 1470 1472 1474 1477 1479 1481 1482 1484 1485 1486 1487 1487 1486 1484 1482 1480 1477 1473 1469 1465 1461 1456 1451 1445 1439 1432 1426 1420 1414 1407 1401 1395 1390 1384 1377 1373
1458 1459 1460 1457 1459 1462 1463 1465 1468 1470 1472 1475 1477 1479 1481 1482 1483 1483 1483 1483 1481 1479 1477 1474 1470 1467 1462 1458 1453 1449 1444 1438 1431 1425 1419 1413 1406 1400 1393 1386 1380 1375 1370 1364